Vertical_Velocity
-2 -4 1 0 -4 -1 3 -2 -3 -1 1 -2 -0 -1 -1 -2 0 3 1 -1 -0 0 -0 -2 -3 -2 -2 -2 -1 0 -3 1 1 2 2 -2 -0 4 -3 2 1 4 -1
-3 -0 -5 2 -3 -4 -4 -1 -2 -1 -0 1 -3 -1 1 -1 3 4 2 4 0 1 0 -2 -2 -2 -2 -4 -3 -3 -1 2 -0 0 1 -1 4 2 -0 -2 -2 1 -1
-4 4 1 -3 2 0 3 1 2 1 -2 -2 2 3 -1 1 6 6 -0 5 13 1 -0 2 3 0 2 0 0 -1 -2 -4 -2 3 -2 -2 -2 -2 -2 -3 -2 0 -2
0 -2 -1 -0 -1 -1 -1 -0 -2 -0 1 1 -0 2 -1 1 2 1 12 4 1 4 1 1 3 -1 -1 -0 -1 1 4 -1 -2 -2 -1 -2 -2 1 0 1 -1 3 -2
1 7 -2 8 -1 -0 5 -0 -5 -3 1 1 1 3 7 2 -1 -1 8 9 -0 2 3 3 2 -1 5 1 5 0 -0 2 -0 -2 -1 -1 1 1 -0 -3 -1 5 -3
-4 9 -1 6 4 -1 -2 -2 8 -5 5 5 4 3 2 -3 -0 7 1 7 4 2 4 -0 -1 1 0 1 1 -1 -0 -1 0 1 2 3 4 1 2 -0 1 2 5
1 -5 15 -1 3 -2 6 2 -3 -3 4 0 7 5 2 0 -0 0 -1 2 10 3 5 2 -1 -1 -0 -2 2 -1 2 2 3 1 2 0 2 1 0 -1 0 3 2
1 3 -2 2 2 10 5 -1 -0 5 -6 3 -0 0 7 2 -3 1 2 -0 -1 -0 0 4 2 1 2 1 1 0 -2 -1 1 2 1 3 -0 -2 -0 2 1 0 4
2 -1 -8 13 -0 1 10 1 1 2 1 -5 1 5 6 2 1 2 1 2 1 3 -2 -3 3 3 2 1 1 2 2 1 1 -1 -2 -1 1 0 -1 -1 -1 -2 -5
-1 6 1 3 11 10 1 -3 2 -1 -1 -2 2 3 1 -0 2 3 5 4 8 3 3 0 -2 -1 2 3 0 -1 -1 -0 2 3 2 1 1 1 2 0 -0 1 3
77 -2 4 2 7 7 -2 0 4 -1 -0 -3 3 1 -3 -2 -5 1 1 0 1 -1 3 1 2 3 6 3 0 -1 2 -1 1 5 4 3 3 3 -2 5 1 -3 -4
-7 26 115 -2 9 3 -2 -7 -5 -3 -5 -1 -0 -2 -2 -2 -1 -2 2 2 2 1 -2 1 2 4 1 1 -1 -1 1 2 2 2 1 2 1 0 -1 4 3 1 1
-10 1 -8 4 4 -3 -6 -6 -3 -10 -7 -3 -0 3 -2 -2 -1 -2 -3 -1 -0 2 3 -1 1 3 4 1 0 1 3 -1 1 3 -2 1 3 -1 -2 1 -1 3 6
8 3 2 9 6 -4 -1 2 1 4 2 1 0 -2 -1 -3 -1 -0 2 6 1 -3 -1 1 4 4 4 5 4 1 1 5 5 2 3 1 1 -2 -6 -5 -3 -0 1
-1 1 -1 2 0 1 -0 -1 4 1 1 4 -0 -6 -1 -1 -3 -3 -2 -2 3 3 -0 3 3 4 0 0 4 3 -0 3 3 2 0 -5 1 2 1 -4 -6 -4 -2
-2 -2 6 -10 0 -6 -0 1 1 -3 -3 1 1 -4 -8 -1 2 -1 1 1 -3 1 -3 7 3 6 6 -2 0 3 3 5 0 0 -3 -1 0 -1 1 -5 1 -4 -1
1 3 -1 0 4 -4 -3 -1 0 4 0 1 5 5 -1 -8 -5 -2 0 -4 -1 1 -2 6 4 -4 1 8 0 -4 2 7 3 0 -5 4 1 0 -1 -2 -2 -5 1
3 2 0 -1 -0 1 -5 -2 -4 -4 7 -3 -1 6 4 -1 4 -0 -5 9 -2 3 1 4 4 -2 -2 1 4 -2 2 5 -3 1 -4 -1 0 3 2 -3 -1 -3 -1
-2 0 4 -2 -3 -1 1 0 3 1 1 -3 2 -2 -0 3 -4 -0 -5 -3 -1 7 12 3 0 0 -3 2 3 3 1 -1 -1 1 -2 -1 2 -1 0 -0 -1 -3 -2
-3 -5 -4 -1 -3 0 1 0 0 2 0 3 12 3 -0 -2 1 -4 -8 4 -3 5 1 1 -1 11 3 -4 2 6 7 -3 1 1 -0 1 -2 -4 1 1 1 -1 -2
-2 -1 -1 -5 -5 -0 3 -4 -3 3 2 -1 -2 4 3 -3 -3 -5 4 3 4 2 3 1 -3 -0 -2 -3 -2 3 2 -5 -5 3 3 0 -2 -0 1 3 1 -1 -1
2 2 1 1 3 2 2 4 -1 -5 2 5 -0 -1 0 -5 -4 3 -0 -1 3 -2 -3 -1 1 6 3 3 1 5 1 -2 3 2 6 1 -1 3 3 -2 0 1 -1
-6 -3 -2 -0 1 -0 -3 0 -0 -3 -5 2 7 3 3 1 -1 -2 4 6 -3 -3 1 4 6 7 3 -4 3 1 -1 4 3 3 3 0 4 1 1 -1 -3 -2 -5
-1 -0 0 -3 -3 -2 -1 -0 0 0 -5 -9 1 4 -2 3 -0 -3 4 2 4 -2 -4 -4 -1 4 3 -3 -8 -4 -2 -0 -0 -3 -1 -1 -1 1 1 -2 -4 -4 -2
2 3 1 -0 -2 -0 -1 -4 -3 -5 -1 -2 -5 -0 4 3 3 -7 5 4 2 2 -1 -1 -2 3 6 2 -1 -0 -3 1 3 3 3 3 3 2 1 1 1 0 -1
-3 -4 -3 0 1 3 1 5 7 6 -2 -9 -8 -3 2 -1 1 1 -4 -1 2 3 3 1 -2 -2 3 3 5 3 0 0 0 0 2 4 4 0 -0 -0 -3 -2 -2
Height
5929 5932 5935 5936 5937 5939 5941 5943 5943 5943 5944 5944 5945 5945 5945 5946 5947 5948 5948 5947 5946 5945 5945 5947 5947 5946 5946 5945 5945 5944 5944 5944 5944 5944 5943 5940 5941 5940 5939 5939 5938 5935 5932
5925 5926 5930 5934 5934 5936 5938 5940 5942 5943 5943 5944 5945 5944 5944 5943 5945 5946 5945 5946 5946 5945 5945 5944 5945 5945 5944 5943 5942 5942 5943 5942 5941 5941 5941 5941 5941 5941 5940 5939 5935 5934 5931
5921 5923 5924 5929 5932 5933 5935 5937 5939 5940 5940 5940 5941 5942 5942 5942 5943 5943 5943 5942 5943 5943 5943 5942 5943 5943 5943 5942 5941 5941 5941 5940 5940 5942 5942 5941 5940 5938 5936 5935 5934 5933 5931
5915 5917 5918 5922 5925 5928 5930 5931 5933 5935 5935 5936 5937 5938 5937 5938 5939 5939 5938 5938 5940 5940 5940 5940 5939 5938 5939 5939 5938 5938 5939 5938 5939 5939 5939 5937 5936 5936 5935 5934 5931 5931 5930
5908 5908 5912 5914 5918 5921 5923 5924 5926 5927 5929 5930 5932 5933 5934 5934 5934 5933 5934 5936 5937 5937 5937 5937 5936 5935 5936 5935 5934 5934 5934 5935 5935 5935 5935 5935 5935 5934 5932 5930 5929 5929 5928
5898 5900 5901 5908 5910 5912 5916 5919 5921 5920 5922 5924 5926 5927 5926 5927 5929 5930 5931 5933 5932 5932 5933 5932 5932 5932 5933 5932 5931 5930 5929 5929 5930 5931 5931 5931 5931 5930 5929 5929 5929 5927 5926
5894 5894 5898 5901 5903 5906 5909 5912 5914 5914 5915 5917 5918 5920 5920 5920 5923 5925 5927 5927 5927 5925 5927 5927 5926 5927 5927 5926 5926 5925 5925 5924 5925 5927 5927 5926 5925 5923 5924 5924 5924 5923 5922
5887 5892 5893 5894 5897 5898 5901 5904 5906 5907 5909 5910 5911 5912 5912 5912 5914 5917 5919 5921 5920 5919 5920 5921 5920 5921 5921 5921 5920 5920 5920 5919 5919 5920 5920 5921 5919 5917 5917 5916 5915 5916 5919
5880 5883 5885 5887 5890 5893 5894 5896 5899 5899 5901 5902 5904 5906 5906 5906 5907 5909 5911 5911 5912 5911 5911 5912 5913 5914 5914 5914 5914 5913 5913 5912 5913 5913 5912 5913 5913 5910 5909 5908 5907 5908 5910
5873 5878 5879 5880 5881 5883 5884 5889 5893 5894 5895 5896 5897 5899 5901 5901 5901 5901 5902 5903 5902 5902 5901 5901 5903 5904 5904 5905 5904 5903 5903 5902 5903 5904 5905 5904 5904 5902 5900 5898 5899 5900 5897
5860 5870 5870 5871 5873 5874 5876 5882 5884 5886 5888 5890 5891 5893 5894 5895 5893 5892 5893 5894 5894 5893 5892 5893 5894 5895 5895 5894 5893 5893 5894 5893 5892 5893 5895 5895 5895 5894 5892 5892 5891 5889 5887
5856 5846 5844 5861 5865 5868 5870 5874 5877 5880 5881 5882 5884 5886 5887 5886 5886 5885 5884 5885 5885 5885 5884 5884 5884 5885 5886 5885 5885 5886 5886 5886 5885 5884 5885 5886 5886 5885 5884 5886 5884 5881 5879
5851 5851 5856 5858 5860 5862 5864 5867 5870 5873 5875 5877 5877 5878 5879 5878 5878 5878 5879 5878 5878 5878 5878 5876 5876 5877 5877 5878 5878 5879 5880 5878 5877 5878 5878 5877 5876 5874 5872 5873 5874 5874 5873
5842 5846 5850 5851 5853 5854 5856 5859 5862 5864 5866 5868 5869 5869 5869 5871 5870 5869 5869 5870 5872 5871 5871 5871 5871 5870 5868 5868 5869 5869 5868 5869 5868 5867 5866 5867 5867 5866 5863 5861 5861 5860 5860
5836 5837 5840 5843 5845 5846 5847 5850 5852 5855 5858 5858 5858 5858 5858 5860 5861 5861 5861 5860 5862 5863 5862 5861 5862 5861 5862 5860 5859 5859 5858 5858 5858 5857 5857 5856 5855 5853 5852 5851 5849 5847 5844
5825 5827 5828 5832 5833 5835 5837 5839 5841 5842 5844 5845 5846 5847 5847 5847 5849 5849 5849 5850 5851 5851 5851 5851 5850 5850 5850 5849 5849 5848 5848 5848 5847 5844 5844 5843 5842 5841 5838 5837 5835 5835 5832
5812 5814 5815 5817 5820 5822 5824 5825 5826 5827 5829 5830 5831 5832 5833 5833 5833 5834 5834 5835 5836 5837 5837 5838 5838 5838 5837 5836 5836 5835 5835 5834 5832 5830 5830 5830 5829 5826 5824 5821 5820 5819 5817
5800 5802 5803 5804 5805 5807 5809 5812 5813 5813 5813 5814 5815 5816 5817 5818 5818 5819 5820 5821 5823 5823 5822 5822 5822 5822 5822 5822 5822 5821 5821 5819 5816 5815 5815 5814 5812 5810 5808 5806 5804 5802 5801
5786 5787 5788 5788 5789 5791 5792 5794 5796 5796 5797 5798 5800 5800 5801 5802 5802 5802 5804 5805 5806 5805 5805 5805 5805 5804 5805 5805 5805 5804 5802 5800 5799 5798 5796 5794 5793 5791 5789 5787 5786 5784 5782
5774 5775 5776 5776 5777 5777 5778 5778 5780 5780 5781 5782 5782 5780 5782 5783 5784 5785 5787 5786 5787 5788 5787 5786 5785 5783 5784 5786 5787 5785 5782 5781 5781 5780 5779 5777 5775 5773 5770 5768 5766 5765 5763
5760 5761 5761 5762 5763 5763 5762 5762 5763 5764 5763 5762 5762 5762 5762 5762 5763 5765 5768 5768 5768 5768 5766 5765 5765 5766 5763 5763 5766 5765 5761 5759 5760 5759 5758 5756 5754 5752 5748 5746 5745 5744 5742
5750 5749 5748 5748 5747 5746 5745 5744 5744 5745 5746 5746 5744 5744 5743 5742 5743 5744 5745 5744 5744 5744 5745 5744 5745 5744 5743 5742 5743 5742 5738 5737 5737 5735 5734 5733 5732 5731 5729 5727 5724 5723 5722
5739 5739 5738 5737 5736 5734 5733 5732 5730 5729 5730 5731 5730 5729 5728 5727 5726 5726 5725 5725 5723 5722 5723 5724 5724 5723 5719 5720 5721 5719 5718 5719 5718 5717 5715 5713 5712 5711 5711 5710 5707 5706 5704
5728 5727 5725 5723 5723 5723 5721 5719 5718 5716 5716 5716 5715 5714 5713 5712 5711 5712 5711 5708 5706 5706 5705 5705 5705 5705 5701 5700 5700 5700 5699 5698 5698 5698 5697 5696 5695 5694 5693 5692 5690 5688 5686
5716 5715 5715 5713 5711 5709 5707 5705 5703 5700 5700 5700 5700 5698 5696 5696 5695 5694 5694 5693 5691 5690 5690 5689 5689 5689 5687 5686 5685 5684 5684 5684 5684 5683 5682 5681 5680 5679 5677 5674 5672 5670 5667
5703 5701 5699 5698 5697 5697 5695 5693 5691 5688 5685 5685 5685 5683 5680 5679 5678 5678 5677 5676 5675 5674 5673 5672 5673 5672 5671 5670 5670 5669 5668 5669 5668 5667 5666 5666 5664 5662 5660 5657 5655 5652 5649